Location: Sungai Liu
(2.3667°N, 113.8667°E)
Time: 14:57:41
(UTC+00:00)

Cosmos 2061 Rocket - Pass Details

Date: 20 May 2022
Orbit: 966 x 1012 km, 82.9° (Epoch: 07 July)

Event Time Altitude Azimuth Distance (km) Brightness Sun altitude
Rises 12:17:02 0° 189° (S) 3,702 6.9 -26.1°
Reaches altitude 10° 12:19:35 10° 192° (SSW) 2,745 6.2 -26.7°
Maximum altitude 12:25:48 66° 273° (W) 1,065 4.3 -28.1°
Drops below altitude 10° 12:31:57 10° 354° (N) 2,708 6.6 -29.5°
Sets 12:34:28 0° 358° (N) 3,649 7.3 -30.1°
